Weather History for St. Petersburg Airport, FL

Change the Weather History Date:

Saturday, December 15, 2012

  Actual Average Record
Temperature  
Mean Temperature 66 °F -  
Max Temperature 75 °F 71 °F 83 °F (1948)
Min Temperature 57 °F 57 °F 36 °F (2004)
Cooling Degree Days 1    
Growing Degree Days 16 (Base 50)    
Moisture  
Dew Point 60 °F    
Average Humidity 88    
Maximum Humidity 100    
Minimum Humidity 64    
Precipitation  
Precipitation 0.00 in - - ()
Sea Level Pressure  
Sea Level Pressure 30.11 in    
Wind  
Wind Speed 6 mph (ENE)    
Max Wind Speed 8 mph    
Max Gust Speed -    
Visibility 8 miles    
Events Fog    
Averages and records for this station are not official NWS values.
T = Trace of Precipitation, MM = Missing Value Source: NWS Daily Summary

Daily Weather History Graph

Daily Weather History Graph

Search for Another Location

Airport:

Trip Planner

Search our weather history database for the weather conditions in past years. The results will help you decide how hot, cold, wet, or windy it might be!

Date:

Astronomy

Dec. 15, 2012 Rise Set
Actual Time 7:14 AM EST 5:37 PM EST
Civil Twilight 6:48 AM EST 6:03 PM EST
Nautical Twilight 6:19 AM EST 6:32 PM EST
Astronomical Twilight 5:50 AM EST 7:01 PM EST
Moon 9:15 AM EST (12/15) 8:29 PM EST (12/15)
Length of Visible Light 11h 14m
Length of Day
10h 23m
Waxing Crescent, 8% of the Moon is Illuminated
Dec 15
Waxing Crescent
Dec 20
First Quarter
Dec 28
Full
Jan 4
Last Quarter
Jan 11
New

Hourly Weather History & Observations

Time (EST) Temp. Dew Point Humidity Pressure Visibility Wind Dir Wind Speed Gust Speed Precip Events Conditions
12:53 AM 57.9 °F 55.9 °F 93% 30.12 in 10.0 mi NE 8.1 mph - N/A   Clear
1:53 AM 57.9 °F 55.0 °F 90% 30.12 in 10.0 mi NE 6.9 mph - N/A   Clear
2:53 AM 57.9 °F 55.0 °F 90% 30.12 in 10.0 mi NNE 8.1 mph - N/A   Clear
3:53 AM 57.9 °F 55.9 °F 93% 30.11 in 10.0 mi ENE 6.9 mph - N/A   Clear
4:53 AM 59.0 °F 57.0 °F 93% 30.09 in 10.0 mi East 5.8 mph - N/A   Clear
5:53 AM 60.1 °F 57.9 °F 93% 30.09 in 10.0 mi ENE 4.6 mph - N/A   Clear
6:25 AM 59.0 °F 57.2 °F 94% 30.11 in 10.0 mi ENE 6.9 mph - N/A   Partly Cloudy
6:53 AM 59.0 °F 57.0 °F 93% 30.11 in 10.0 mi East 3.5 mph - N/A   Partly Cloudy
7:12 AM 59.0 °F 57.2 °F 94% 30.11 in 8.0 mi ENE 4.6 mph - N/A   Mostly Cloudy
7:24 AM 60.8 °F 59.0 °F 94% 30.12 in 2.0 mi NE 3.5 mph - N/A   Overcast
7:49 AM 59.0 °F 59.0 °F 100% 30.13 in 0.2 mi NE 5.8 mph - N/A Fog Fog
7:53 AM 59.0 °F 59.0 °F 100% 30.14 in 0.2 mi NE 6.9 mph - N/A Fog Fog
8:53 AM 59.0 °F 59.0 °F 100% 30.16 in 0.2 mi ENE 8.1 mph - N/A Fog Fog
9:53 AM 60.1 °F 59.0 °F 96% 30.17 in 2.0 mi East 5.8 mph - N/A   Overcast
10:33 AM 62.6 °F 60.8 °F 94% 30.17 in 3.0 mi ENE 5.8 mph - N/A   Overcast
10:53 AM 64.0 °F 60.1 °F 87% 30.17 in 10.0 mi ENE 5.8 mph - N/A   Overcast
11:05 AM 66.2 °F 60.8 °F 83% 30.16 in 10.0 mi ENE 4.6 mph - N/A   Scattered Clouds
11:53 AM 66.9 °F 61.0 °F 81% 30.14 in 10.0 mi Variable 3.5 mph - N/A   Scattered Clouds
12:53 PM 70.0 °F 62.1 °F 76% 30.11 in 10.0 mi Variable 3.5 mph - N/A   Scattered Clouds
1:53 PM 73.0 °F 62.1 °F 68% 30.07 in 10.0 mi ESE 4.6 mph - N/A   Partly Cloudy
2:53 PM 75.0 °F 63.0 °F 66% 30.06 in 10.0 mi ENE 4.6 mph - N/A   Clear
3:53 PM 75.9 °F 63.0 °F 64% 30.06 in 10.0 mi Calm Calm - N/A   Mostly Cloudy
4:53 PM 73.9 °F 63.0 °F 68% 30.06 in 10.0 mi Calm Calm - N/A   Scattered Clouds
5:53 PM 69.1 °F 63.0 °F 81% 30.08 in 10.0 mi NNW 5.8 mph - N/A   Partly Cloudy
6:53 PM 68.0 °F 63.0 °F 84% 30.08 in 10.0 mi NNW 3.5 mph - N/A   Clear
7:53 PM 64.9 °F 62.1 °F 90% 30.08 in 10.0 mi Calm Calm - N/A   Clear
8:53 PM 64.9 °F 63.0 °F 93% 30.09 in 10.0 mi North 3.5 mph - N/A   Clear
9:53 PM 66.0 °F 64.0 °F 93% 30.09 in 10.0 mi NE 4.6 mph - N/A   Clear
10:53 PM 64.0 °F 63.0 °F 96% 30.08 in 10.0 mi ESE 3.5 mph - N/A   Clear
11:53 PM 64.9 °F 61.0 °F 87% 30.07 in 10.0 mi ESE 5.8 mph - N/A   Clear